OK1KZE-6 Weather Reports


Display with metric or nautical units.
time (UTC)temp
F
wind
direction
speed
MPH
gust
MPH
rain 1hr
in
rain 24hr
in
rain mn
in
humidity
%
barometer
mb
20260504181009 68 87 19.0 19.0 0.00 0.00 0.00 48 1014.1
20260504180506 68 88 17.0 19.0 0.00 0.00 0.00 48 1013.9
20260504180008 68 89 21.0 21.0 0.00 0.00 0.00 47 1013.9
20260504175507 69 93 19.0 21.0 0.00 0.00 0.00 47 1014.0
20260504175008 69 87 19.0 20.0 0.00 0.00 0.00 46 1014.1
20260504174507 69 83 19.0 19.0 0.00 0.00 0.00 46 1014.1
20260504174008 69 84 17.0 18.0 0.00 0.00 0.00 46 1014.0
20260504173509 69 88 18.0 19.0 0.00 0.00 0.00 45 1014.2
20260504173008 69 87 18.0 19.0 0.00 0.00 0.00 45 1014.2
20260504172508 69 87 19.0 21.0 0.00 0.00 0.00 45 1014.0
20260504172008 69 87 20.0 21.0 0.00 0.00 0.00 45 1014.2
20260504171508 69 91 16.0 20.0 0.00 0.00 0.00 46 1014.3
20260504171007 69 83 21.0 22.0 0.00 0.00 0.00 45 1014.2
20260504170508 70 82 20.0 21.0 0.00 0.00 0.00 46 1014.3
20260504151007 71 84 14.0 16.0 0.00 0.00 0.00 42 1015.1
20260504150507 72 89 17.0 19.0 0.00 0.00 0.00 42 1014.9
20260504141007 72 101 12.0 15.0 0.00 0.00 0.00 42 1015.3
20260504140508 72 84 9.0 11.0 0.00 0.00 0.00 40 1015.6
20260504130508 70 93 16.0 17.0 0.00 0.00 0.00 42 1015.6
20260504110508 67 66 12.0 12.0 0.00 0.00 0.00 46 1016.8
20260504100509 66 63 14.0 14.0 0.00 0.00 0.00 47 1017.1
20260504082007 62 48 14.0 15.0 0.00 0.00 0.00 54 1016.7
20260504081507 62 46 10.0 12.0 0.00 0.00 0.00 54 1016.6
20260504081008 61 54 14.0 15.0 0.00 0.00 0.00 56 1016.6
20260504080508 61 33 8.0 9.0 0.00 0.00 0.00 56 1016.8
20260504050508 54 113 17.0 18.0 0.00 0.00 0.00 65 1015.3
20260504050008 53 117 18.0 19.0 0.00 0.00 0.00 66 1015.2
20260504045507 53 111 16.0 18.0 0.00 0.00 0.00 66 1015.1
20260504045008 53 107 15.0 17.0 0.00 0.00 0.00 67 1015.3
20260504044508 53 113 13.0 14.0 0.00 0.00 0.00 67 1015.1
20260504044008 53 116 13.0 14.0 0.00 0.00 0.00 66 1015.1
20260504043508 54 101 16.0 18.0 0.00 0.00 0.00 66 1015.0
20260504043008 54 104 6.0 8.0 0.00 0.00 0.00 64 1015.1
20260504042507 54 77 7.0 8.0 0.00 0.00 0.00 64 1014.8
20260504042007 54 74 6.0 7.0 0.00 0.00 0.00 64 1015.0
20260504041508 55 86 12.0 13.0 0.00 0.00 0.00 61 1015.0
20260504041008 55 105 12.0 14.0 0.00 0.00 0.00 60 1015.2
20260504040507 56 91 10.0 11.0 0.00 0.00 0.00 60 1015.2
20260504040009 56 110 10.0 11.0 0.00 0.00 0.00 58 1015.3
20260504035507 59 135 14.0 14.0 0.00 0.00 0.00 54 1015.2
20260504035008 58 130 15.0 15.0 0.00 0.00 0.00 55 1015.1
20260504034507 56 138 17.0 18.0 0.00 0.00 0.00 58 1015.1
20260504034007 57 131 12.0 17.0 0.00 0.00 0.00 57 1015.3
20260504033508 57 150 19.0 21.0 0.00 0.00 0.00 57 1015.2
20260504033007 56 136 21.0 21.0 0.00 0.00 0.00 58 1015.0
20260504032507 57 132 21.0 21.0 0.00 0.00 0.00 56 1014.9
20260504032007 57 131 20.0 21.0 0.00 0.00 0.00 56 1014.9
20260504031507 57 130 20.0 21.0 0.00 0.00 0.00 56 1014.8
20260504031008 59 134 15.0 16.0 0.00 0.00 0.00 53 1014.8
20260504030508 60 129 13.0 14.0 0.00 0.00 0.00 52 1015.0
20260504030008 60 126 13.0 14.0 0.00 0.00 0.00 51 1015.2
20260504025508 60 125 12.0 14.0 0.00 0.00 0.00 51 1015.3
20260504025008 59 105 11.0 12.0 0.00 0.00 0.00 53 1015.0
20260504024507 59 106 12.0 13.0 0.00 0.00 0.00 52 1015.3
20260504024007 58 100 10.0 12.0 0.00 0.00 0.00 53 1015.0
20260504023508 58 102 10.0 10.0 0.00 0.00 0.00 54 1015.1
20260504023008 59 105 10.0 11.0 0.00 0.00 0.00 53 1015.2
20260504022506 59 99 9.0 11.0 0.00 0.00 0.00 53 1015.5
20260504022008 59 103 10.0 12.0 0.00 0.00 0.00 53 1015.0
20260504021508 59 113 12.0 14.0 0.00 0.00 0.00 53 1015.1
20260504021007 59 104 15.0 17.0 0.00 0.00 0.00 52 1014.9
20260504020508 58 103 18.0 18.0 0.00 0.00 0.00 55 1015.0
20260504020008 59 102 19.0 20.0 0.00 0.00 0.00 53 1015.2
20260504015507 59 105 18.0 20.0 0.00 0.00 0.00 52 1015.1
20260504015008 60 104 18.0 19.0 0.00 0.00 0.00 51 1014.8
20260504014508 61 100 17.0 19.0 0.00 0.00 0.00 49 1015.0
20260504014007 61 98 19.0 20.0 0.00 0.00 0.00 49 1015.0
20260504013507 61 91 16.0 16.0 0.00 0.00 0.00 49 1015.0
20260504013007 61 91 16.0 16.0 0.00 0.00 0.00 50 1015.1
20260504012507 61 89 15.0 15.0 0.00 0.00 0.00 50 1015.2
20260504012007 61 89 13.0 13.0 0.00 0.00 0.00 49 1015.2
20260504011508 61 85 10.0 11.0 0.00 0.00 0.00 50 1015.2
20260504011008 61 84 10.0 11.0 0.00 0.00 0.00 50 1015.1
20260504010507 60 77 8.0 10.0 0.00 0.00 0.00 50 1015.2
20260504010007 60 81 9.0 11.0 0.00 0.00 0.00 50 1015.1
20260504005507 60 76 7.0 8.0 0.00 0.00 0.00 50 1015.3
20260504005008 60 89 8.0 8.0 0.00 0.00 0.00 51 1015.0
20260504004508 60 89 8.0 9.0 0.00 0.00 0.00 50 1014.8
20260504004007 61 95 8.0 10.0 0.00 0.00 0.00 50 1014.8
20260504003508 60 91 10.0 11.0 0.00 0.00 0.00 51 1014.9
20260504003008 60 98 10.0 12.0 0.00 0.00 0.00 50 1014.8
20260504002508 61 91 12.0 15.0 0.00 0.00 0.00 50 1014.6
20260504002008 60 69 11.0 12.0 0.00 0.00 0.00 51 1014.7
20260504001508 61 58 10.0 12.0 0.00 0.00 0.00 51 1014.5
20260504001008 60 58 10.0 11.0 0.00 0.00 0.00 51 1014.8
20260504000507 60 76 8.0 8.0 0.00 0.00 0.00 50 1014.8
20260504000009 61 75 7.0 7.0 0.00 0.00 0.00 50 1014.8
20260503235508 61 119 7.0 8.0 0.00 0.00 0.00 50 1014.6
20260503235007 61 112 9.0 11.0 0.00 0.00 0.00 49 1014.5
20260503234508 62 133 12.0 13.0 0.00 0.00 0.00 49 1014.5
20260503234008 62 142 12.0 15.0 0.00 0.00 0.00 49 1014.4
20260503233508 61 145 18.0 18.0 0.00 0.00 0.00 50 1014.4
20260503233008 60 138 10.0 13.0 0.00 0.00 0.00 51 1014.3
20260503232508 60 133 13.0 13.0 0.00 0.00 0.00 51 1014.3
20260503232008 61 135 17.0 17.0 0.00 0.00 0.00 49 1014.4
20260503231508 61 133 17.0 19.0 0.00 0.00 0.00 49 1014.4
20260503231008 62 138 15.0 19.0 0.00 0.00 0.00 48 1014.4
20260503230508 62 139 16.0 22.0 0.00 0.00 0.00 48 1014.3
20260503230008 62 133 17.0 21.0 0.00 0.00 0.00 48 1014.4
20260503225507 62 136 22.0 23.0 0.00 0.00 0.00 48 1014.3
20260503225007 62 138 20.0 22.0 0.00 0.00 0.00 47 1014.2
20260503224507 62 149 22.0 24.0 0.00 0.00 0.00 47 1014.2
20260503224007 63 140 21.0 23.0 0.00 0.00 0.00 47 1014.2
20260503223508 63 137 22.0 23.0 0.00 0.00 0.00 47 1014.4
20260503223008 63 137 21.0 23.0 0.00 0.00 0.00 47 1014.4
20260503222508 63 137 19.0 25.0 0.00 0.00 0.00 47 1014.5
20260503222007 63 137 21.0 25.0 0.00 0.00 0.00 47 1014.6
20260503221508 63 140 21.0 21.0 0.00 0.00 0.00 47 1014.7
20260503221007 63 139 19.0 22.0 0.00 0.00 0.00 47 1014.4
20260503220507 63 141 18.0 19.0 0.00 0.00 0.00 47 1014.5
20260503220009 64 144 19.0 19.0 0.00 0.00 0.00 46 1014.6
20260503215508 64 138 17.0 19.0 0.00 0.00 0.00 46 1014.7
20260503215008 64 125 14.0 17.0 0.00 0.00 0.00 46 1014.4
20260503214508 64 122 12.0 18.0 0.00 0.00 0.00 45 1014.6
20260503214007 64 127 14.0 23.0 0.00 0.00 0.00 45 1014.7
20260503213507 64 133 17.0 20.0 0.00 0.00 0.00 45 1014.8
20260503213008 64 141 20.0 22.0 0.00 0.00 0.00 45 1014.8
20260503212507 65 120 17.0 21.0 0.00 0.00 0.00 45 1014.9
20260503212007 65 145 19.0 21.0 0.00 0.00 0.00 44 1014.8
20260503211508 65 124 17.0 21.0 0.00 0.00 0.00 44 1014.9
20260503211008 65 151 24.0 26.0 0.00 0.00 0.00 44 1014.8
20260503210508 65 133 20.0 29.0 0.00 0.00 0.00 44 1014.5
20260503210008 65 132 23.0 26.0 0.00 0.00 0.00 43 1014.4
20260503205507 66 128 22.0 27.0 0.00 0.00 0.00 43 1014.6
20260503205008 66 130 22.0 25.0 0.00 0.00 0.00 43 1014.7
20260503204507 66 131 21.0 25.0 0.00 0.00 0.00 43 1014.9
20260503204007 66 131 21.0 23.0 0.00 0.00 0.00 43 1014.7
20260503203508 66 135 23.0 26.0 0.00 0.00 0.00 43 1014.9
20260503203007 66 139 24.0 28.0 0.00 0.00 0.00 42 1014.7
20260503202508 66 126 21.0 23.0 0.00 0.00 0.00 43 1014.9
20260503202008 67 130 24.0 26.0 0.00 0.00 0.00 42 1014.7
20260503201008 67 121 17.0 29.0 0.00 0.00 0.00 41 1014.9
20260503200508 67 135 23.0 27.0 0.00 0.00 0.00 42 1014.9
20260503200008 67 133 25.0 28.0 0.00 0.00 0.00 42 1015.0
20260503195507 67 138 28.0 34.0 0.00 0.00 0.00 41 1015.1
20260503195007 67 131 25.0 26.0 0.00 0.00 0.00 41 1015.0
20260503194507 68 131 24.0 29.0 0.00 0.00 0.00 40 1015.0
20260503193507 68 131 23.0 26.0 0.00 0.00 0.00 40 1014.8
20260503193007 68 117 18.0 26.0 0.00 0.00 0.00 40 1015.0
20260503192508 68 132 28.0 28.0 0.00 0.00 0.00 39 1015.0
20260503192007 68 123 21.0 31.0 0.00 0.00 0.00 39 1015.1
20260503191508 68 122 19.0 28.0 0.00 0.00 0.00 38 1014.8
20260503191007 68 124 20.0 28.0 0.00 0.00 0.00 38 1014.9
20260503190508 69 125 23.0 24.0 0.00 0.00 0.00 37 1014.7
20260503190008 69 125 23.0 27.0 0.00 0.00 0.00 37 1014.7
20260503185508 69 129 28.0 29.0 0.00 0.00 0.00 37 1014.8
20260503185008 69 117 17.0 29.0 0.00 0.00 0.00 37 1014.8
20260503184508 69 127 21.0 26.0 0.00 0.00 0.00 36 1014.6
20260503184009 69 127 23.0 23.0 0.00 0.00 0.00 36 1014.5
20260503183508 70 130 24.0 25.0 0.00 0.00 0.00 36 1014.6
20260503183009 69 119 18.0 23.0 0.00 0.00 0.00 36 1014.6
20260503182508 70 116 19.0 22.0 0.00 0.00 0.00 35 1014.6
20260503182007 70 114 21.0 23.0 0.00 0.00 0.00 35 1014.7
20260503181508 71 117 19.0 23.0 0.00 0.00 0.00 34 1014.7